sat.trackr.live / text

‹ back to catalog

NUSAT-51 (YVONNE BRILL)

NORAD 66740 · 2025-276CC

PAYLOAD ACTIVE UNKNOWN

§ Identity

Operator
Country
ARGN
Launch date
2025-11-28
Launch site
AFWTR
Launch vehicle
Mass (kg)
RCS (m²)

External: N2YO · Heavens-Above · Gunter

§ Orbital elements

Epoch: 2026-05-24T22:07:37.469280Z

Period
94.74 min
Inclination
97.4211°
Eccentricity
0.0004746
Mean motion
15.19945807 rev/d
Perigee alt
502.7 km
Apogee alt
509.3 km
Semi-major
6,884.1 km
B*
2.5011e-4
RAAN
218.9629°
Arg perigee
84.8448°
Mean anomaly
275.3329°
Rev number
2,689

§ Raw data

NUSAT-51 (YVONNE BRILL)1 66740U 25276CC  26144.92196145  .00005312  00000+0  25011-3 0  99912 66740  97.4211 218.9629 0004746  84.8448 275.3329 15.19945807 26898

JSON: /api/v1/satellites/66740 · /tle

For live sub-satellite position, see the globe view (requires WebGL).

§ Visibility from observer

Set your observer location to see the next 7 days of passes ≥ 10°. The values pass through the URL so the page stays shareable.

No JS? Fill the form by hand. The geolocation button needs JavaScript.